STARLINK-2152

decayed
NORAD ID: 47740 Int'l Des: 2021-017 Owner: SPXS Country: US Constellation: starlink
LEOCIRCULAR
グループ

STARLINK-2152について

説明を読み込み中...

高度履歴

Altitude vs Time

uPlot chart will show altitude changes over time

軌道要素

1 47740U 21017U 25003.94327631 .07611731 12145-4 11569-2 0 9995
2 47740 53.0346 319.6418 0002228 179.3269 288.5130 16.33458941212611
Epoch: Jan 3, 2025 • Age: 6111 hours

現在のステータス

Position data unavailable
打ち上げ日 Mar 4, 2021
運用期間 4.5 years
落下予定日 Jan 4, 2025
タイプ internet

技術仕様

分類 Payload
質量 260.00 kg
乾燥質量 248.00 kg
総質量 260.00 kg
長さ 0.20 m
直径 2.80 m
スパン 9.00 m
形状 Box + pan
製造者 SPXS
バスタイプ Starlink
フェーズステータス Unknown Transfer Status
所有者/国 SPXS/US

大規模コンステレーション

Loading constellations...